Hourly Data Report for October 04, 2017

All times are specified in Local Standard Time (LST). Add 1 hour to adjust for Daylight Saving Time where and when it is observed.

WINDSOR A
ONTARIO

42°16'34.000" N
82°57'19.000" W
189.60 m
6139527
71538
YQG

Download Data

Hourly Data (October 2017)
Hourly Data Report for October 4, 2017
Temp Definition
°C
Dew Point Temp Definition
°C
Rel Hum Definition
%
Wind Dir Definition
10's deg

Wind Spd Definition
km/h
Visibility Definition
km
Stn Press Definition
kPa
Hmdx Definition


Wind Chill Definition


Weather Definition


TIME
00:00 Legend Double Dagger 21.9 14.2 61 20 16 19.3 100.38 25   LegendNANA
01:00 Legend Double Dagger 20.9 14.8 68 20 17 24.1 100.39 25   Mostly Cloudy
02:00 Legend Double Dagger 20.2 14.6 70 20 16 24.1 100.35     LegendNANA
03:00 Legend Double Dagger 21.1 15.2 69 21 15 19.3 100.31 25   LegendNANA
04:00 Legend Double Dagger 21.2 15.8 71 21 17 24.1 100.29 26   Cloudy
05:00 Legend Double Dagger 20.8 16.1 74 21 16 19.3 100.27 25   LegendNANA
06:00 Legend Double Dagger 20.4 16.0 76 21 16 19.3 100.27 25   LegendNANA
07:00 Legend Double Dagger 21.5 16.2 71 22 23 24.1 100.27 26   Mostly Cloudy
08:00 Legend Double Dagger 21.9 16.6 72 23 18 24.1 100.24 27   LegendNANA
09:00 Legend Double Dagger 22.9 17.4 71 23 26 24.1 100.25 28   LegendNANA
10:00 Legend Double Dagger 22.7 18.1 75 24 26 24.1 100.20 29   Mostly Cloudy
11:00 Legend Double Dagger 24.6 18.7 69 24 27 24.1 100.14 31   LegendNANA
12:00 Legend Double Dagger 26.0 19.0 65 24 30 24.1 100.07 33   LegendNANA
13:00 Legend Double Dagger 24.6 18.7 70 23 23 24.1 99.99 31   Cloudy
14:00 Legend Double Dagger 25.1 19.3 69 23 17 19.3 99.89 32   LegendNANA
15:00 Legend Double Dagger 25.6 20.2 72 24 17 24.1 99.89 33   LegendNANA
16:00 Legend Double Dagger 25.2 19.8 72 26 23 24.1 99.85 33   Mostly Cloudy
17:00 Legend Double Dagger 24.9 19.5 72 28 20 24.1 99.83 32   LegendNANA
18:00 Legend Double Dagger 24.1 19.6 76 28 14 24.1 99.85 31   LegendNANA
19:00 Legend Double Dagger 22.8 18.8 78 30 25 24.1 99.92 29   Mostly Cloudy
20:00 Legend Double Dagger 20.7 18.4 86 26 17 19.3 99.96 27   Rain Showers
21:00 Legend Double Dagger 19.1 17.1 88 25 12 24.1 99.97     Rain Showers
22:00 Legend Double Dagger 19.4 15.1 76 29 12 24.1 99.95     Mostly Cloudy
23:00 Legend Double Dagger 19.5 14.2 71 31 12 24.1 99.97     LegendNANA

Notes on Data Quality.

Legend

  • E = Estimated
  • M = Missing
  • NA = Not Available
  • ‡ = Partner data that is not subject to review by the National Climate Archives
Date modified: